Regional Weather Roundup
Issued by NWS

Home | Current Version | Previous Version | Text Only | Print | Product List | Glossary Off
Versions: 1 2 3 4 5 6 7 8 9 10 11 12 13 14 15 16 17 18 19 20 21 22 23 24 25 26 27 28 29 30 31 32 33 34 35 36 37 38 39 40 41 42 43 44 45 46 47 48 49 50

000
ASUS43 KDTX 020201
RWRMI
MICHIGAN HOURLY REGIONAL WEATHER ROUNDUP
NATIONAL WEATHER SERVICE DETROIT/PONTIAC MI
1000 PM EDT SAT AUG 01 2015

NOTE: "FAIR" INDICATES FEW OR NO CLOUDS BELOW 12,000 FEET WITH NO
SIGNIFICANT WEATHER AND/OR OBSTRUCTION TO VISIBILITY.

MIZ047>049-052>055-059>063-066>070-074>076-081>083-020300-
SOUTHEAST LOWER MICHIGAN

CITY           SKY/WX    TMP DP  RH WIND       PRES   REMARKS
ADRIAN         CLOUDY    71  56  58 W6        29.93R
ALMA           CLEAR     61  54  79 CALM      29.88S
ANN ARBOR      CLEAR     64  56  75 W5        29.91R
BAD AXE        CLEAR     65  57  74 SW3       29.85R
CARO           CLEAR     65  52  63 SW3       29.86R
DETROIT CITY   CLEAR     76  48  37 W3        29.89R
DETROIT        PTCLDY    75  52  44 W7        29.90R
FLINT          CLEAR     70  51  51 SW6       29.88R
GROSSE ILE     CLEAR     73  54  49 SW3       29.88S
HILLSDALE      CLOUDY    71  57  60 CALM      29.93S
HOWELL         CLEAR     68  50  52 SW3       29.91R

CITY           SKY/WX    TMP DP  RH WIND       PRES   REMARKS
JACKSON        PTCLDY    68  56  65 SW5       29.92R
LAMBERTVILLE   CLEAR     73  55  52 W5        29.92S
LANSING        CLEAR     69  53  56 W6        29.90S
LAPEER         FAIR      71  51  49 W5        29.88R
MASON          CLEAR     66  52  59 CALM      29.91R
MONROE         CLEAR     69  57  63 W5        29.89S
PONTIAC        CLEAR     70  51  51 W7        29.89R
PORT HOPE        N/A     70  59  68 SW6       29.82R
PORT HURON     CLEAR     68  52  56 CALM      29.87R
TRI CITIES     CLEAR     68  52  56 W6        29.87R
MIDLAND        FAIR      71  48  44 W3        29.85S
TROY           CLEAR     76  46  35 W5        29.91R
SAGINAW HB     CLEAR     72  50  46 W7        29.86R
$$
MIZ043>046-050>051-056>058-064>065-071>073-077>080-020300-
SOUTHWEST LOWER MICHIGAN

CITY           SKY/WX    TMP DP  RH WIND       PRES   REMARKS
BATTLE CREEK   PTCLDY    71  57  61 S3        29.92R
BENTON HARBOR  PTCLDY    70  62  76 CALM      29.89S
BIG RAPIDS     CLEAR     65  52  62 CALM      29.87S
COLDWATER      MOCLDY    68  59  72 CALM      29.92S
FREMONT        FAIR      65  55  70 S5        29.88R
HOLLAND        CLEAR     68  59  73 CALM      29.90S
GRAND RAPIDS   PTCLDY    71  53  52 SW8       29.90R
IONIA          FAIR      69  54  58 SW3       29.89R
KALAMAZOO      PTCLDY    72  57  59 CALM      29.91S
LUDINGTON      CLEAR     71  61  70 S3        29.86S
MARSHALL       MOCLDY    68  57  68 CALM      29.92R
MOUNT PLEASANT CLEAR     67  53  58 SW3       29.86S
MUSKEGON       PTCLDY    68  60  75 S6        29.88S
SOUTH HAVEN    PTCLDY    68  62  79 CALM      29.90S
$$
MIZ016>042-020300-
NORTHERN LOWER MICHIGAN

CITY           SKY/WX    TMP DP  RH WIND       PRES   REMARKS
ALPENA         CLEAR     62  56  80 CALM      29.83R
BEAVER ISLAND  PTCLDY    68  60  75 SW12G17   29.80R
BELLAIRE       CLEAR     65  56  70 CALM      29.81F
CADILLAC       CLEAR     65  53  65 SW3       29.87S
CHARLEVOIX     CLEAR     69  56  62 SW6       29.83F
FRANKFORT      CLEAR     68  59  74 CALM      29.84S
GAYLORD        CLEAR     67  52  58 CALM      29.85S
GRAYLING       CLEAR     62  51  69 CALM      29.86S
HARBOR SPRINGS CLEAR     68  57  68 W3        29.81S
HOUGHTON LAKE  CLEAR     71  53  52 W7        29.86S
MANISTEE       CLEAR     66  54  63 CALM      29.85F
OSCODA         CLEAR     67  60  77 W3        29.83R
PELLSTON       PTCLDY    64  56  75 CALM      29.81S
ROGERS CITY    CLEAR     65  55  69 CALM      29.82S
TRAVERSE CITY  CLEAR     71  53  52 SW5       29.81F
$$
MIZ007>008-015-020300-
EASTERN UPPER MICHIGAN

CITY           SKY/WX    TMP DP  RH WIND       PRES   REMARKS
KINROSS        PTCLDY    66  61  82 CALM      29.80R
MACKINAC ISLAN   N/A     69  56  63 SW7       29.79F
NEWBERRY       CLEAR     61  57  87 SW5       29.79S
S. S. MARIE    MOCLDY    64  56  75 CALM      29.79S
MUNISING         N/A     65  56  72 S5        29.77S
$$
MIZ004>006-011>014-085-020300-
CENTRAL UPPER MICHIGAN

CITY           SKY/WX    TMP DP  RH WIND       PRES   REMARKS
ESCANABA       CLEAR     68  52  56 W3        29.78S
MENOMINEE      CLEAR     70  52  52 W3        29.80S
SAWYER-GWINN   CLEAR     70  45  40 CALM      29.80S
$$
MIZ001>003-009>011-084-020300-
WESTERN UPPER MICHIGAN

CITY           SKY/WX    TMP DP  RH WIND       PRES   REMARKS
IRON MOUNTAIN  CLEAR     66  55  67 CALM      29.79F
HOUGHTON       MOCLDY    69  49  48 SW8       29.73F
COPPER HARBOR    N/A     72  49  44 VRB6      29.70F
IRONWOOD       CLEAR     70  55  60 SW7       29.75S
$$

ABBREVIATIONS USED IN REMARKS
   TC - TEMPERATURE IN CELSIUS
  WCI - WIND CHILL INDEX
   HX - HEAT INDEX
  VSB - VISIBILITY



USA.gov is the U.S. government's official web portal to all federal, state and local government web resources and services.